Location: Las Navas
(40.6024°N, 4.3345°W)
Time: 01:41:12
(UTC+00:00)

Meteor 1-16 Rocket - Pass Details

Date: 03 April 2020
Orbit: 790 x 907 km, 81.2° (Epoch: 27 May)

Event Time Altitude Azimuth Distance (km) Brightness Sun altitude
Rises 19:44:04 0° 169° (S) 3,281 7.0 -11.8°
Reaches altitude 10° 19:46:30 10° 163° (SSE) 2,364 6.2 -12.3°
Maximum altitude 19:51:31 43° 93° (E) 1,119 4.4 -13.2°
Drops below altitude 10° 19:56:41 10° 23° (NNE) 2,435 6.6 -14.1°
Sets 19:59:13 0° 17° (NNE) 3,391 7.4 -14.5°
